Pocatello, ID

11:58 AM MST on December 02, 2016 (GMT -0700)
Pocatello Regional

Weather History for KPIH - December, 2014

Change the Weather History Date:

Monday, December 1, 2014

  Actual Average Record
Temperature  
Mean Temperature 34 °F 27 °F  
Max Temperature 44 °F 36 °F 64 °F (1995)
Min Temperature 24 °F 19 °F -3 °F (1967)
Degree Days  
Heating Degree Days 31 38  
Month to date heating degree days 31 38  
Since 1 July heating degree days 1558 1766  
Cooling Degree Days 0 0  
Month to date cooling degree days 0 0  
Year to date cooling degree days 421 392  
Moisture  
Dew Point 29 °F    
Average Humidity 83    
Maximum Humidity 96    
Minimum Humidity 70    
Precipitation  
Precipitation 0.02 in 0.04 in 0.91 in (1982)
Month to date precipitation 0.02 0.04  
Year to date precipitation 11.90 10.93  
Snow  
Snow 0.60 in - - ()
Month to date snowfall 0.6  
Since 1 July snowfall 5.2  
Snow Depth 0.00 in    
Sea Level Pressure  
Sea Level Pressure 30.20 in    
Wind  
Wind Speed 7 mph (West)    
Max Wind Speed 21 mph    
Max Gust Speed 26 mph    
Visibility 8 miles    
Events Rain , Snow    
T = Trace of Precipitation, MM = Missing Value Source: NWS Daily Summary

Daily Weather History Graph

Daily Weather History Graph

Search for Another Location

Airport or City:

Trip Planner

Search our weather history database for the weather conditions in past years. The results will help you decide how hot, cold, wet, or windy it might be!

Date:

Astronomy

Dec. 01, 2014 Rise Set
Actual Time 7:41 AM MST 4:56 PM MST
Civil Twilight 7:09 AM MST 5:28 PM MST
Nautical Twilight 6:34 AM MST 6:03 PM MST
Astronomical Twilight 6:00 AM MST 6:38 PM MST
Moon 2:11 PM MST (12/1) 2:15 AM MST (12/1)
Length of Visible Light 10h 18m
Length of Day
9h 15m
Waxing Gibbous, 76% of the Moon is Illuminated
Dec 1
Waxing Gibbous
Dec 6
Full
Dec 14
Last Quarter
Dec 21
New
Dec 28
First Quarter

Hourly Weather History & Observations

Time (MST) Temp. Windchill Dew Point Humidity Pressure Visibility Wind Dir Wind Speed Gust Speed Precip Events Conditions
12:53 AM 25.0 °F - 21.0 °F 85% 30.25 in 10.0 mi Calm Calm - N/A   Mostly Cloudy
1:53 AM 25.0 °F 20.7 °F 23.0 °F 92% 30.26 in 10.0 mi NW 3.5 mph - N/A   Overcast
2:53 AM 24.8 °F 19.1 °F 21.2 °F 86% 30.17 in 10.0 mi NNW 4.6 mph - N/A   Overcast
3:53 AM 26.1 °F - 21.9 °F 84% 30.25 in 10.0 mi Calm Calm - N/A   Overcast
4:53 AM 26.1 °F 21.9 °F 23.0 °F 88% 30.26 in 10.0 mi NW 3.5 mph - N/A   Overcast
5:53 AM 26.1 °F - 23.0 °F 88% 30.27 in 10.0 mi Calm Calm - 0.00 in   Overcast
6:53 AM 26.1 °F - 24.1 °F 92% 30.28 in 8.0 mi Calm Calm - 0.00 in Snow Light Snow
7:44 AM 26.1 °F - 24.1 °F 92% 30.19 in 2.0 mi Calm Calm - 0.00 in Snow Light Snow
7:49 AM 26.6 °F - 24.8 °F 93% 30.19 in 1.0 mi Calm Calm - 0.00 in Snow Light Snow
7:53 AM 26.1 °F - 24.1 °F 92% 30.29 in 1.0 mi Calm Calm - 0.00 in Snow Light Snow
8:22 AM 26.1 °F - 25.0 °F 96% 30.20 in 3.0 mi Calm Calm - 0.01 in Snow Light Snow
8:53 AM 26.1 °F - 25.0 °F 96% 30.30 in 4.0 mi Calm Calm - 0.01 in Snow Light Snow
9:32 AM 27.0 °F 23.0 °F 25.0 °F 92% 30.21 in 10.0 mi North 3.5 mph - 0.00 in   Overcast
9:53 AM 28.0 °F - 26.1 °F 92% 30.31 in 4.0 mi Calm Calm - 0.00 in Snow Light Snow
10:13 AM 28.0 °F - 27.0 °F 96% 30.21 in 2.0 mi Calm Calm - 0.01 in Snow Light Snow
10:40 AM 28.9 °F 23.9 °F 27.0 °F 92% 30.20 in 4.0 mi ENE 4.6 mph - 0.01 in Snow Light Snow
10:53 AM 30.0 °F 26.5 °F 27.0 °F 88% 30.29 in 7.0 mi NNE 3.5 mph - 0.01 in   Overcast
11:53 AM 32.0 °F 26.4 °F 30.0 °F 92% 30.26 in 10.0 mi NE 5.8 mph - N/A   Overcast
12:29 PM 33.1 °F 27.7 °F 30.9 °F 92% 30.16 in 10.0 mi North 5.8 mph - N/A   Overcast
12:36 PM 33.1 °F 26.9 °F 30.9 °F 92% 30.16 in 10.0 mi North 6.9 mph - N/A   Overcast
12:53 PM 33.1 °F 28.7 °F 30.9 °F 92% 30.24 in 10.0 mi North 4.6 mph - N/A   Overcast
1:53 PM 33.1 °F 27.7 °F 32.0 °F 96% 30.22 in 10.0 mi ENE 5.8 mph - 0.00 in Snow Light Snow
2:53 PM 35.1 °F - 33.1 °F 92% 30.19 in 10.0 mi Calm Calm - 0.00 in   Overcast
3:53 PM 41.0 °F 33.5 °F 34.0 °F 76% 30.15 in 10.0 mi SSW 13.8 mph - N/A   Mostly Cloudy
4:53 PM 41.0 °F 33.1 °F 33.1 °F 73% 30.14 in 10.0 mi South 15.0 mph - N/A   Mostly Cloudy
5:53 PM 41.0 °F 32.2 °F 33.1 °F 73% 30.14 in 10.0 mi SSW 18.4 mph 25.3 mph N/A   Overcast
6:40 PM 41.0 °F 33.1 °F 36.0 °F 82% 30.10 in 10.0 mi SSW 15.0 mph 25.3 mph 0.00 in Rain Light Rain
6:53 PM 41.0 °F 33.5 °F 36.0 °F 82% 30.15 in 10.0 mi SSW 13.8 mph - 0.00 in Rain Light Rain
7:12 PM 39.9 °F 33.4 °F 35.1 °F 83% 30.10 in 10.0 mi South 10.4 mph - 0.00 in Rain Light Rain
7:53 PM 39.9 °F 33.4 °F 35.1 °F 83% 30.14 in 10.0 mi South 10.4 mph - 0.00 in   Overcast
8:53 PM 42.1 °F 33.9 °F 36.0 °F 79% 30.12 in 10.0 mi South 17.3 mph - 0.00 in   Overcast
9:53 PM 44.1 °F 36.2 °F 36.0 °F 73% 30.13 in 10.0 mi SSW 18.4 mph - N/A   Overcast
10:53 PM 41.0 °F 34.7 °F 35.1 °F 79% 30.13 in 10.0 mi West 10.4 mph - N/A   Overcast
11:53 PM 39.9 °F 33.4 °F 35.1 °F 83% 30.12 in 10.0 mi SW 10.4 mph - N/A   Overcast